Simultaneous Nadir Overpasses (SNOs) Predictions

Prediction of SNOs between NOAA-20 and AQUA Satellite Orbit:

Table of predicted SNOs for the next 14.0 days since TLE Epoch: 10/1/2022
Index Date (NOAA-20) Time (NOAA-20) Lat,Lon (NOAA-20) SZA (NOAA-20 ) Date (AQUA) Time (AQUA) Lat,Lon (AQUA) SZA (AQUA ) Distance(km) Time Diff (sec)
1 10/03/2022 05:23:17 79.00, -7.87 96.61 10/03/2022 05:23:55 79.01, -7.78 96.57 2.02 38
2 10/03/2022 06:13:53 -79.33, 161.87 83.89 10/03/2022 06:13:13 -79.34, 161.99 83.88 2.83 40
3 10/05/2022 20:49:28 -79.01, -59.35 82.44 10/05/2022 20:50:11 -79.02, -59.27 82.49 1.99 43
4 10/05/2022 21:40:03 79.34, 110.35 97.08 10/05/2022 21:39:28 79.34, 110.43 97.09 1.70 35
5 10/08/2022 12:15:34 79.15,-109.92 98.31 10/08/2022 12:16:22 79.14,-110.04 98.30 2.58 48
6 10/08/2022 13:06:11 -79.44, 59.64 82.14 10/08/2022 13:05:41 -79.44, 59.53 82.10 2.49 30
7 10/11/2022 03:41:48 -79.01,-162.43 80.54 10/11/2022 03:42:39 -79.02,-162.36 80.59 1.67 51
8 10/11/2022 04:32:23 79.33, 7.23 98.99 10/11/2022 04:31:56 79.34, 7.32 99.00 1.89 27
9 10/13/2022 19:07:58 79.00, 145.90 100.44 10/13/2022 19:08:52 79.00, 146.02 100.37 2.59 54



Historial Predications of SNOs between NOAA-20 and AQUA
